Overview Statistics Trail Chart Weather Telemetry Raw packets
 

This is the latest recevied weather packets stored in our database for station/object KB9HUO. If no packets are shown the sender has not sent any weather packets the latest 10 day(s).

<< 16 17 18 19 20 21 22 >>
Time Temp. Humidity Pressure Rain* Wind** Luminosity Snow
1788557480 33.89° C 62% 1014.9 hPa 0 mm - 73 W/m² -
1788557179 33.89° C 60% 1014.9 hPa 0 mm - 77 W/m² -
1788556874 33.33° C 60% 1014.8 hPa 0 mm - 67 W/m² -
1788556575 33.89° C 60% 1014.9 hPa 0 mm - 50 W/m² -
1788556270 33.89° C 62% 1014.9 hPa 0 mm - 59 W/m² -
1788555969 33.89° C 58% 1014.8 hPa 0 mm - 45 W/m² -
1788555665 34.44° C 56% 1015 hPa 0 mm - 42 W/m² -
1788555360 34.44° C 53% 1014.9 hPa 0 mm - 49 W/m² -
1788555056 35° C 54% 1015.2 hPa 0 mm - 44 W/m² -
1788554752 35° C 56% 1015 hPa 0 mm - 65 W/m² -
1788554448 35° C 55% 1015.1 hPa 0 mm - 69 W/m² -
1788554144 35° C 53% 1015.1 hPa 0 mm - 57 W/m² -
1788553840 35° C 53% 1015.4 hPa 0 mm - 109 W/m² -
1788553536 35° C 54% 1015.4 hPa 0 mm - 152 W/m² -
1788553232 35° C 54% 1015.4 hPa 0 mm - 82 W/m² -
1788552927 35° C 54% 1015.5 hPa 0 mm - 66 W/m² -
1788552622 34.44° C 55% 1015.6 hPa 0 mm - 65 W/m² -
1788552320 34.44° C 56% 1015.7 hPa 0 mm - 68 W/m² -
1788552016 34.44° C 58% 1015.6 hPa 0 mm - 63 W/m² -
1788551715 33.89° C 59% 1015.7 hPa 0 mm - 80 W/m² -
1788551414 33.33° C 57% 1015.8 hPa 0 mm - 89 W/m² -
1788551109 33.89° C 57% 1015.9 hPa 0 mm - 62 W/m² -
1788550804 34.44° C 56% 1016 hPa 0 mm - 79 W/m² -
1788550499 34.44° C 56% 1016.1 hPa 0 mm - 94 W/m² -
1788550194 34.44° C 55% 1016.2 hPa 0 mm - 301 W/m² -

* Rain latest hour (hover to see other rain measurements)
** Current wind speed in m/s (hover to see current wind gust speed)